Year,Month,Day,Hour,Minute,Value (Times are PST for windspeed in km/hr)
2010,10,23,00,00,0.30
2010,10,23,00,01,0.40
2010,10,23,00,02,0.50
2010,10,23,00,03,0.10
2010,10,23,00,04,0.10
2010,10,23,00,05,2.70
2010,10,23,00,06,2.20
2010,10,23,00,07,3.00
2010,10,23,00,08,2.60
2010,10,23,00,09,2.60
2010,10,23,00,10,0.30
2010,10,23,00,11,2.10
2010,10,23,00,12,1.50
2010,10,23,00,13,0.80
2010,10,23,00,14,3.40
2010,10,23,00,15,0.20
2010,10,23,00,16,0.70
2010,10,23,00,17,2.10
2010,10,23,00,18,0.70
2010,10,23,00,19,0.50
2010,10,23,00,20,0.10
2010,10,23,00,21,2.30
2010,10,23,00,22,1.00
2010,10,23,00,23,0.00
2010,10,23,00,24,1.50
2010,10,23,00,25,0.20
2010,10,23,00,26,0.40
2010,10,23,00,27,1.80
2010,10,23,00,28,1.50
2010,10,23,00,29,0.10
2010,10,23,00,30,0.50
2010,10,23,00,31,0.60
2010,10,23,00,32,1.20
2010,10,23,00,33,1.10
2010,10,23,00,34,1.20
2010,10,23,00,35,0.50
2010,10,23,00,36,0.00
2010,10,23,00,37,0.60
2010,10,23,00,38,0.50
2010,10,23,00,39,0.40
2010,10,23,00,40,2.00
2010,10,23,00,41,2.40
2010,10,23,00,42,1.30
2010,10,23,00,43,0.60
2010,10,23,00,44,1.40
2010,10,23,00,45,0.70
2010,10,23,00,46,0.60
2010,10,23,00,47,0.80
2010,10,23,00,48,1.10
2010,10,23,00,49,0.50
2010,10,23,00,50,0.10
2010,10,23,00,51,0.10
2010,10,23,00,52,0.30
2010,10,23,00,53,0.10
2010,10,23,00,54,0.20
2010,10,23,00,55,2.50
2010,10,23,00,56,1.20
2010,10,23,00,57,2.40
2010,10,23,00,58,2.70
2010,10,23,00,59,3.70
2010,10,23,01,00,3.90
2010,10,23,01,01,3.50
2010,10,23,01,02,4.80
2010,10,23,01,03,3.70
2010,10,23,01,04,2.40
2010,10,23,01,05,3.20
2010,10,23,01,06,3.00
2010,10,23,01,07,3.70
2010,10,23,01,08,1.80
2010,10,23,01,09,2.70
2010,10,23,01,10,3.00
2010,10,23,01,11,4.20
2010,10,23,01,12,3.20
2010,10,23,01,13,0.70
2010,10,23,01,14,1.70
2010,10,23,01,15,0.80
2010,10,23,01,16,0.70
2010,10,23,01,17,2.80
2010,10,23,01,18,0.80
2010,10,23,01,19,0.50
2010,10,23,01,20,0.00
2010,10,23,01,21,0.10
2010,10,23,01,22,0.00
2010,10,23,01,23,0.00
2010,10,23,01,24,0.00
2010,10,23,01,25,0.00
2010,10,23,01,26,0.00
2010,10,23,01,27,0.00
2010,10,23,01,28,0.00
2010,10,23,01,29,0.00
2010,10,23,01,30,0.00
2010,10,23,01,31,0.00
2010,10,23,01,32,0.00
2010,10,23,01,33,0.00
2010,10,23,01,34,0.00
2010,10,23,01,35,0.00
2010,10,23,01,36,0.00
2010,10,23,01,37,0.00
2010,10,23,01,38,0.00
2010,10,23,01,39,0.00
2010,10,23,01,40,0.00
2010,10,23,01,41,0.00
2010,10,23,01,42,0.00
2010,10,23,01,43,0.00
2010,10,23,01,44,0.00
2010,10,23,01,45,0.00
2010,10,23,01,46,0.00
2010,10,23,01,47,0.00
2010,10,23,01,48,0.00
2010,10,23,01,49,0.00
2010,10,23,01,50,0.00
2010,10,23,01,51,0.20
2010,10,23,01,52,0.10
2010,10,23,01,53,0.10
2010,10,23,01,54,0.00
2010,10,23,01,55,0.00
2010,10,23,01,56,0.00
2010,10,23,01,57,0.00
2010,10,23,01,58,0.00
2010,10,23,01,59,0.00
2010,10,23,02,00,0.00
2010,10,23,02,01,0.00
2010,10,23,02,02,0.00
2010,10,23,02,03,0.00
2010,10,23,02,04,0.10
2010,10,23,02,05,1.20
2010,10,23,02,06,0.90
2010,10,23,02,07,3.10
2010,10,23,02,08,3.10
2010,10,23,02,09,0.60
2010,10,23,02,10,0.20
2010,10,23,02,11,0.50
2010,10,23,02,12,0.60
2010,10,23,02,13,0.10
2010,10,23,02,14,0.10
2010,10,23,02,15,0.60
2010,10,23,02,16,0.90
2010,10,23,02,17,1.00
2010,10,23,02,18,0.20
2010,10,23,02,19,0.00
2010,10,23,02,20,0.00
2010,10,23,02,21,0.00
2010,10,23,02,22,0.10
2010,10,23,02,23,0.00
2010,10,23,02,24,0.90
2010,10,23,02,25,0.30
2010,10,23,02,26,0.00
2010,10,23,02,27,0.20
2010,10,23,02,28,0.40
2010,10,23,02,29,0.00
2010,10,23,02,30,0.10
2010,10,23,02,31,1.20
2010,10,23,02,32,0.70
2010,10,23,02,33,0.00
2010,10,23,02,34,2.10
2010,10,23,02,35,0.00
2010,10,23,02,36,0.00
2010,10,23,02,37,0.10
2010,10,23,02,38,0.00
2010,10,23,02,39,0.20
2010,10,23,02,40,0.10
2010,10,23,02,41,0.20
2010,10,23,02,42,1.00
2010,10,23,02,43,1.80
2010,10,23,02,44,2.30
2010,10,23,02,45,1.70
2010,10,23,02,46,0.10
2010,10,23,02,47,0.10
2010,10,23,02,48,0.00
2010,10,23,02,49,0.50
2010,10,23,02,50,0.10
2010,10,23,02,51,0.20
2010,10,23,02,52,0.10
2010,10,23,02,53,0.30
2010,10,23,02,54,1.80
2010,10,23,02,55,1.80
2010,10,23,02,56,0.10
2010,10,23,02,57,0.80
2010,10,23,02,58,0.10
2010,10,23,02,59,0.00
2010,10,23,03,00,1.60
2010,10,23,03,01,2.10
2010,10,23,03,02,0.00
2010,10,23,03,03,0.10
2010,10,23,03,04,0.40
2010,10,23,03,05,1.80
2010,10,23,03,06,0.90
2010,10,23,03,07,1.60
2010,10,23,03,08,0.20
2010,10,23,03,09,3.50
2010,10,23,03,10,1.70
2010,10,23,03,11,0.60
2010,10,23,03,12,0.80
2010,10,23,03,13,0.00
2010,10,23,03,14,0.70
2010,10,23,03,15,0.80
2010,10,23,03,16,0.70
2010,10,23,03,17,0.30
2010,10,23,03,18,0.00
2010,10,23,03,19,0.10
2010,10,23,03,20,3.50
2010,10,23,03,21,1.80
2010,10,23,03,22,2.10
2010,10,23,03,23,0.10
2010,10,23,03,24,1.50
2010,10,23,03,25,3.40
2010,10,23,03,26,3.70
2010,10,23,03,27,1.10
2010,10,23,03,28,0.20
2010,10,23,03,29,0.10
2010,10,23,03,30,3.00
2010,10,23,03,31,0.00
2010,10,23,03,32,0.10
2010,10,23,03,33,0.00
2010,10,23,03,34,1.20
2010,10,23,03,35,1.90
2010,10,23,03,36,2.80
2010,10,23,03,37,2.30
2010,10,23,03,38,0.90
2010,10,23,03,39,2.00
2010,10,23,03,40,1.50
2010,10,23,03,41,2.40
2010,10,23,03,42,2.30
2010,10,23,03,43,0.20
2010,10,23,03,44,2.20
2010,10,23,03,45,3.80
2010,10,23,03,46,2.40
2010,10,23,03,47,3.00
2010,10,23,03,48,3.10
2010,10,23,03,49,1.50
2010,10,23,03,50,1.70
2010,10,23,03,51,2.50
2010,10,23,03,52,3.00
2010,10,23,03,53,3.40
2010,10,23,03,54,2.30
2010,10,23,03,55,0.50
2010,10,23,03,56,1.60
2010,10,23,03,57,1.30
2010,10,23,03,58,0.70
2010,10,23,03,59,0.10
2010,10,23,04,00,1.10
2010,10,23,04,01,0.80
2010,10,23,04,02,2.30
2010,10,23,04,03,1.60
2010,10,23,04,04,0.20
2010,10,23,04,05,1.10
2010,10,23,04,06,0.80
2010,10,23,04,07,1.80
2010,10,23,04,08,1.30
2010,10,23,04,09,2.10
2010,10,23,04,10,0.60
2010,10,23,04,11,0.10
2010,10,23,04,12,1.00
2010,10,23,04,13,1.40
2010,10,23,04,14,3.70
2010,10,23,04,15,2.10
2010,10,23,04,16,2.30
2010,10,23,04,17,4.20
2010,10,23,04,18,4.40
2010,10,23,04,19,2.80
2010,10,23,04,20,2.90
2010,10,23,04,21,3.80
2010,10,23,04,22,3.00
2010,10,23,04,23,1.40
2010,10,23,04,24,1.40
2010,10,23,04,25,0.80
2010,10,23,04,26,1.00
2010,10,23,04,27,2.00
2010,10,23,04,28,1.50
2010,10,23,04,29,3.50
2010,10,23,04,30,1.80
2010,10,23,04,31,1.70
2010,10,23,04,32,2.20
2010,10,23,04,33,4.00
2010,10,23,04,34,2.20
2010,10,23,04,35,3.70
2010,10,23,04,36,2.30
2010,10,23,04,37,3.10
2010,10,23,04,38,3.40
2010,10,23,04,39,1.40
2010,10,23,04,40,1.40
2010,10,23,04,41,2.50
2010,10,23,04,42,2.30
2010,10,23,04,43,1.60
2010,10,23,04,44,3.40
2010,10,23,04,45,3.20
2010,10,23,04,46,1.00
2010,10,23,04,47,2.90
2010,10,23,04,48,3.30
2010,10,23,04,49,1.90
2010,10,23,04,50,1.90
2010,10,23,04,51,3.50
2010,10,23,04,52,1.90
2010,10,23,04,53,1.90
2010,10,23,04,54,1.70
2010,10,23,04,55,1.00
2010,10,23,04,56,2.80
2010,10,23,04,57,2.60
2010,10,23,04,58,1.90
2010,10,23,04,59,1.80
2010,10,23,05,00,2.60
2010,10,23,05,01,1.80
2010,10,23,05,02,3.10
2010,10,23,05,03,3.50
2010,10,23,05,04,1.70
2010,10,23,05,05,2.40
2010,10,23,05,06,2.00
2010,10,23,05,07,2.10
2010,10,23,05,08,4.10
2010,10,23,05,09,0.90
2010,10,23,05,10,1.50
2010,10,23,05,11,1.20
2010,10,23,05,12,1.30
2010,10,23,05,13,2.10
2010,10,23,05,14,2.10
2010,10,23,05,15,1.40
2010,10,23,05,16,3.40
2010,10,23,05,17,3.20
2010,10,23,05,18,2.50
2010,10,23,05,19,1.50
2010,10,23,05,20,4.50
2010,10,23,05,21,3.70
2010,10,23,05,22,3.40
2010,10,23,05,23,3.40
2010,10,23,05,24,2.70
2010,10,23,05,25,1.70
2010,10,23,05,26,4.10
2010,10,23,05,27,4.10
2010,10,23,05,28,1.70
2010,10,23,05,29,1.40
2010,10,23,05,30,1.90
2010,10,23,05,31,3.30
2010,10,23,05,32,2.00
2010,10,23,05,33,1.90
2010,10,23,05,34,1.50
2010,10,23,05,35,0.20
2010,10,23,05,36,2.30
2010,10,23,05,37,2.00
2010,10,23,05,38,3.00
2010,10,23,05,39,3.40
2010,10,23,05,40,3.60
2010,10,23,05,41,2.00
2010,10,23,05,42,0.50
2010,10,23,05,43,2.10
2010,10,23,05,44,1.50
2010,10,23,05,45,0.10
2010,10,23,05,46,3.00
2010,10,23,05,47,2.40
2010,10,23,05,48,2.90
2010,10,23,05,49,3.50
2010,10,23,05,50,1.80
2010,10,23,05,51,1.30
2010,10,23,05,52,1.50
2010,10,23,05,53,1.80
2010,10,23,05,54,1.20
2010,10,23,05,55,1.80
2010,10,23,05,56,1.70
2010,10,23,05,57,0.50
2010,10,23,05,58,1.70
2010,10,23,05,59,2.00
2010,10,23,06,00,0.20
2010,10,23,06,01,1.80
2010,10,23,06,02,1.10
2010,10,23,06,03,2.50
2010,10,23,06,04,1.30
2010,10,23,06,05,0.80
2010,10,23,06,06,0.50
2010,10,23,06,07,3.30
2010,10,23,06,08,0.80
2010,10,23,06,09,2.30
2010,10,23,06,10,1.80
2010,10,23,06,11,3.10
2010,10,23,06,12,1.50
2010,10,23,06,13,1.50
2010,10,23,06,14,1.40
2010,10,23,06,15,0.40
2010,10,23,06,16,0.20
2010,10,23,06,17,0.00
2010,10,23,06,18,0.00
2010,10,23,06,19,0.00
2010,10,23,06,20,0.00
2010,10,23,06,21,0.00
2010,10,23,06,22,0.10
2010,10,23,06,23,0.00
2010,10,23,06,24,0.00
2010,10,23,06,25,0.00
2010,10,23,06,26,0.00
2010,10,23,06,27,1.40
2010,10,23,06,28,0.20
2010,10,23,06,29,0.00
2010,10,23,06,30,0.00
2010,10,23,06,31,0.00
2010,10,23,06,32,0.00
2010,10,23,06,33,0.00
2010,10,23,06,34,0.00
2010,10,23,06,35,0.20
2010,10,23,06,36,0.00
2010,10,23,06,37,0.00
2010,10,23,06,38,0.00
2010,10,23,06,39,0.20
2010,10,23,06,40,0.60
2010,10,23,06,41,0.00
2010,10,23,06,42,0.70
2010,10,23,06,43,0.10
2010,10,23,06,44,0.40
2010,10,23,06,45,0.10
2010,10,23,06,46,0.00
2010,10,23,06,47,0.00
2010,10,23,06,48,0.00
2010,10,23,06,49,0.60
2010,10,23,06,50,0.40
2010,10,23,06,51,1.00
2010,10,23,06,52,0.00
2010,10,23,06,53,0.10
2010,10,23,06,54,0.30
2010,10,23,06,55,2.10
2010,10,23,06,56,1.80
2010,10,23,06,57,1.20
2010,10,23,06,58,1.30
2010,10,23,06,59,0.60
2010,10,23,07,00,1.90
2010,10,23,07,01,1.50
2010,10,23,07,02,1.70
2010,10,23,07,03,0.10
2010,10,23,07,04,1.50
2010,10,23,07,05,0.40
2010,10,23,07,06,1.50
2010,10,23,07,07,0.70
2010,10,23,07,08,0.80
2010,10,23,07,09,0.80
2010,10,23,07,10,1.40
2010,10,23,07,11,2.00
2010,10,23,07,12,1.90
2010,10,23,07,13,3.30
2010,10,23,07,14,2.00
2010,10,23,07,15,2.20
2010,10,23,07,16,0.10
2010,10,23,07,17,0.20
2010,10,23,07,18,0.00
2010,10,23,07,19,0.00
2010,10,23,07,20,0.00
2010,10,23,07,21,0.00
2010,10,23,07,22,0.10
2010,10,23,07,23,0.00
2010,10,23,07,24,0.00
2010,10,23,07,25,2.50
2010,10,23,07,26,0.00
2010,10,23,07,27,0.10
2010,10,23,07,28,0.00
2010,10,23,07,29,0.90
2010,10,23,07,30,0.60
2010,10,23,07,31,0.50
2010,10,23,07,32,1.30
2010,10,23,07,33,0.20
2010,10,23,07,34,0.10
2010,10,23,07,35,0.00
2010,10,23,07,36,0.60
2010,10,23,07,37,0.10
2010,10,23,07,38,0.00
2010,10,23,07,39,0.00
2010,10,23,07,40,0.10
2010,10,23,07,41,0.00
2010,10,23,07,42,0.00
2010,10,23,07,43,0.00
2010,10,23,07,44,0.30
2010,10,23,07,45,1.40
2010,10,23,07,46,2.40
2010,10,23,07,47,0.20
2010,10,23,07,48,0.00
2010,10,23,07,49,0.00
2010,10,23,07,50,0.40
2010,10,23,07,51,0.50
2010,10,23,07,52,0.00
2010,10,23,07,53,0.00
2010,10,23,07,54,0.40
2010,10,23,07,55,0.00
2010,10,23,07,56,0.00
2010,10,23,07,57,0.00
2010,10,23,07,58,0.60
2010,10,23,07,59,3.40
2010,10,23,08,00,1.80
2010,10,23,08,01,2.20
2010,10,23,08,02,1.00
2010,10,23,08,03,3.70
2010,10,23,08,04,3.40
2010,10,23,08,05,1.70
2010,10,23,08,06,0.60
2010,10,23,08,07,0.40
2010,10,23,08,08,4.30
2010,10,23,08,09,2.90
2010,10,23,08,10,0.50
2010,10,23,08,11,4.10
2010,10,23,08,12,4.40
2010,10,23,08,13,1.80
2010,10,23,08,14,1.80
2010,10,23,08,15,3.70
2010,10,23,08,16,2.70
2010,10,23,08,17,4.40
2010,10,23,08,18,5.60
2010,10,23,08,19,2.10
2010,10,23,08,20,1.90
2010,10,23,08,21,2.10
2010,10,23,08,22,1.40
2010,10,23,08,23,2.40
2010,10,23,08,24,1.10
2010,10,23,08,25,2.40
2010,10,23,08,26,6.00
2010,10,23,08,27,2.70
2010,10,23,08,28,0.70
2010,10,23,08,29,2.40
2010,10,23,08,30,4.60
2010,10,23,08,31,3.00
2010,10,23,08,32,2.90
2010,10,23,08,33,4.50
2010,10,23,08,34,4.40
2010,10,23,08,35,4.80
2010,10,23,08,36,7.50
2010,10,23,08,37,3.60
2010,10,23,08,38,6.10
2010,10,23,08,39,5.30
2010,10,23,08,40,2.70
2010,10,23,08,41,3.60
2010,10,23,08,42,4.10
2010,10,23,08,43,4.40
2010,10,23,08,44,2.50
2010,10,23,08,45,4.40
2010,10,23,08,46,2.90
2010,10,23,08,47,0.80
2010,10,23,08,48,0.10
2010,10,23,08,49,2.70
2010,10,23,08,50,3.80
2010,10,23,08,51,4.20
2010,10,23,08,52,2.70
2010,10,23,08,53,2.80
2010,10,23,08,54,3.10
2010,10,23,08,55,1.20
2010,10,23,08,56,3.50
2010,10,23,08,57,9.20
2010,10,23,08,58,6.10
2010,10,23,08,59,9.40
2010,10,23,09,00,8.30
2010,10,23,09,01,3.00
2010,10,23,09,02,5.60
2010,10,23,09,03,6.60
2010,10,23,09,04,2.40
2010,10,23,09,05,5.10
2010,10,23,09,06,4.60
2010,10,23,09,07,12.10
2010,10,23,09,08,3.20
2010,10,23,09,09,4.10
2010,10,23,09,10,5.40
2010,10,23,09,11,1.50
2010,10,23,09,12,6.00
2010,10,23,09,13,5.30
2010,10,23,09,14,8.50
2010,10,23,09,15,8.00
2010,10,23,09,16,7.70
2010,10,23,09,17,10.90
2010,10,23,09,18,7.40
2010,10,23,09,19,5.10
2010,10,23,09,20,7.40
2010,10,23,09,21,6.80
2010,10,23,09,22,8.50
2010,10,23,09,23,10.70
2010,10,23,09,24,6.40
2010,10,23,09,25,7.00
2010,10,23,09,26,6.20
2010,10,23,09,27,5.10
2010,10,23,09,28,2.10
2010,10,23,09,29,1.60
2010,10,23,09,30,0.20
2010,10,23,09,31,2.20
2010,10,23,09,32,5.10
2010,10,23,09,33,3.90
2010,10,23,09,34,5.60
2010,10,23,09,35,7.00
2010,10,23,09,36,5.50
2010,10,23,09,37,8.80
2010,10,23,09,38,4.50
2010,10,23,09,39,5.40
2010,10,23,09,40,4.80
2010,10,23,09,41,11.80
2010,10,23,09,42,14.40
2010,10,23,09,43,12.70
2010,10,23,09,44,10.60
2010,10,23,09,45,7.00
2010,10,23,09,46,6.40
2010,10,23,09,47,15.60
2010,10,23,09,48,7.40
2010,10,23,09,49,13.10
2010,10,23,09,50,10.50
2010,10,23,09,51,6.40
2010,10,23,09,52,5.90
2010,10,23,09,53,4.30
2010,10,23,09,54,6.00
2010,10,23,09,55,17.50
2010,10,23,09,56,13.50
2010,10,23,09,57,13.90
2010,10,23,09,58,9.20
2010,10,23,09,59,7.20
2010,10,23,10,00,10.50
2010,10,23,10,01,7.30
2010,10,23,10,02,10.30
2010,10,23,10,03,8.60
2010,10,23,10,04,13.60
2010,10,23,10,05,10.60
2010,10,23,10,06,13.70
2010,10,23,10,07,13.20
2010,10,23,10,08,14.10
2010,10,23,10,09,14.30
2010,10,23,10,10,13.00
2010,10,23,10,11,11.30
2010,10,23,10,12,7.80
2010,10,23,10,13,11.00
2010,10,23,10,14,12.00
2010,10,23,10,15,12.40
2010,10,23,10,16,12.00
2010,10,23,10,17,14.40
2010,10,23,10,18,14.10
2010,10,23,10,19,15.20
2010,10,23,10,20,18.80
2010,10,23,10,21,10.20
2010,10,23,10,22,14.00
2010,10,23,10,23,14.70
2010,10,23,10,24,11.00
2010,10,23,10,25,11.70
2010,10,23,10,26,15.00
2010,10,23,10,27,14.10
2010,10,23,10,28,9.40
2010,10,23,10,29,13.30
2010,10,23,10,30,18.80
2010,10,23,10,31,14.80
2010,10,23,10,32,14.70
2010,10,23,10,33,14.60
2010,10,23,10,34,11.10
2010,10,23,10,35,9.70
2010,10,23,10,36,15.00
2010,10,23,10,37,13.80
2010,10,23,10,38,13.90
2010,10,23,10,39,15.90
2010,10,23,10,40,17.80
2010,10,23,10,41,14.50
2010,10,23,10,42,12.70
2010,10,23,10,43,13.50
2010,10,23,10,44,18.30
2010,10,23,10,45,15.00
2010,10,23,10,46,15.20
2010,10,23,10,47,15.40
2010,10,23,10,48,10.90
2010,10,23,10,49,10.00
2010,10,23,10,50,13.10
2010,10,23,10,51,13.00
2010,10,23,10,52,14.60
2010,10,23,10,53,16.70
2010,10,23,10,54,13.50
2010,10,23,10,55,13.60
2010,10,23,10,56,15.60
2010,10,23,10,57,13.00
2010,10,23,10,58,16.50
2010,10,23,10,59,19.20
2010,10,23,11,00,12.60
2010,10,23,11,01,12.30
2010,10,23,11,02,13.90
2010,10,23,11,03,16.40
2010,10,23,11,04,13.60
2010,10,23,11,05,18.20
2010,10,23,11,06,15.00
2010,10,23,11,07,10.90
2010,10,23,11,08,20.10
2010,10,23,11,09,18.90
2010,10,23,11,10,18.70
2010,10,23,11,11,15.00
2010,10,23,11,12,14.20
2010,10,23,11,13,14.30
2010,10,23,11,14,11.10
2010,10,23,11,15,13.00
2010,10,23,11,16,14.30
2010,10,23,11,17,11.70
2010,10,23,11,18,14.10
2010,10,23,11,19,17.70
2010,10,23,11,20,13.90
2010,10,23,11,21,17.20
2010,10,23,11,22,12.60
2010,10,23,11,23,15.50
2010,10,23,11,24,19.70
2010,10,23,11,25,16.50
2010,10,23,11,26,14.40
2010,10,23,11,27,13.60
2010,10,23,11,28,13.00
2010,10,23,11,29,18.80
2010,10,23,11,30,21.10
2010,10,23,11,31,20.30
2010,10,23,11,32,22.80
2010,10,23,11,33,21.90
2010,10,23,11,34,17.90
2010,10,23,11,35,23.00
2010,10,23,11,36,16.50
2010,10,23,11,37,16.70
2010,10,23,11,38,14.50
2010,10,23,11,39,20.80
2010,10,23,11,40,18.10
2010,10,23,11,41,18.00
2010,10,23,11,42,17.80
2010,10,23,11,43,17.40
2010,10,23,11,44,13.70
2010,10,23,11,45,21.80
2010,10,23,11,46,17.50
2010,10,23,11,47,20.30
2010,10,23,11,48,25.00
2010,10,23,11,49,19.20
2010,10,23,11,50,22.90
2010,10,23,11,51,21.70
2010,10,23,11,52,19.00
2010,10,23,11,53,15.90
2010,10,23,11,54,18.70
2010,10,23,11,55,15.60
2010,10,23,11,56,18.10
2010,10,23,11,57,19.50
2010,10,23,11,58,25.40
2010,10,23,11,59,20.20
2010,10,23,12,00,21.20
2010,10,23,12,01,22.70
2010,10,23,12,02,19.90
2010,10,23,12,03,23.70
2010,10,23,12,04,20.70
2010,10,23,12,05,20.40
2010,10,23,12,06,22.60
2010,10,23,12,07,22.10
2010,10,23,12,08,21.10
2010,10,23,12,09,18.50
2010,10,23,12,10,15.50
2010,10,23,12,11,16.80
2010,10,23,12,12,17.10
2010,10,23,12,13,21.00
2010,10,23,12,14,20.40
2010,10,23,12,15,20.80
2010,10,23,12,16,16.90
2010,10,23,12,17,13.40
2010,10,23,12,18,17.20
2010,10,23,12,19,16.10
2010,10,23,12,20,17.30
2010,10,23,12,21,23.30
2010,10,23,12,22,20.20
2010,10,23,12,23,22.10
2010,10,23,12,24,18.70
2010,10,23,12,25,22.50
2010,10,23,12,26,15.80
2010,10,23,12,27,17.50
2010,10,23,12,28,18.70
2010,10,23,12,29,20.20
2010,10,23,12,30,23.00
2010,10,23,12,31,17.40
2010,10,23,12,32,19.10
2010,10,23,12,33,20.60
2010,10,23,12,34,18.60
2010,10,23,12,35,16.50
2010,10,23,12,36,20.10
2010,10,23,12,37,17.60
2010,10,23,12,38,18.50
2010,10,23,12,39,24.90
2010,10,23,12,40,21.90
2010,10,23,12,41,18.30
2010,10,23,12,42,20.10
2010,10,23,12,43,18.30
2010,10,23,12,44,16.70
2010,10,23,12,45,17.70
2010,10,23,12,46,17.40
2010,10,23,12,47,17.60
2010,10,23,12,48,25.50
2010,10,23,12,49,13.80
2010,10,23,12,50,18.70
2010,10,23,12,51,19.90
2010,10,23,12,52,18.10
2010,10,23,12,53,14.70
2010,10,23,12,54,20.80
2010,10,23,12,55,21.80
2010,10,23,12,56,20.50
2010,10,23,12,57,22.80
2010,10,23,12,58,21.30
2010,10,23,12,59,21.90
2010,10,23,13,00,18.60
2010,10,23,13,01,21.00
2010,10,23,13,02,23.00
2010,10,23,13,03,17.70
2010,10,23,13,04,18.00
2010,10,23,13,05,16.70
2010,10,23,13,06,27.00
2010,10,23,13,07,20.20
2010,10,23,13,08,23.00
2010,10,23,13,09,18.70
2010,10,23,13,10,13.80
2010,10,23,13,11,16.20
2010,10,23,13,12,19.80
2010,10,23,13,13,12.60
2010,10,23,13,14,21.90
2010,10,23,13,15,17.30
2010,10,23,13,16,16.20
2010,10,23,13,17,17.60
2010,10,23,13,18,11.00
2010,10,23,13,19,13.90
2010,10,23,13,20,17.00
2010,10,23,13,21,15.70
2010,10,23,13,22,17.60
2010,10,23,13,23,21.90
2010,10,23,13,24,15.70
2010,10,23,13,25,13.70
2010,10,23,13,26,16.70
2010,10,23,13,27,13.00
2010,10,23,13,28,18.60
2010,10,23,13,29,19.00
2010,10,23,13,30,11.50
2010,10,23,13,31,15.70
2010,10,23,13,32,12.60
2010,10,23,13,33,14.30
2010,10,23,13,34,16.40
2010,10,23,13,35,11.50
2010,10,23,13,36,13.40
2010,10,23,13,37,15.90
2010,10,23,13,38,17.20
2010,10,23,13,39,12.90
2010,10,23,13,40,16.10
2010,10,23,13,41,12.70
2010,10,23,13,42,14.50
2010,10,23,13,43,14.70
2010,10,23,13,44,19.50
2010,10,23,13,45,22.50
2010,10,23,13,46,18.00
2010,10,23,13,47,17.60
2010,10,23,13,48,15.70
2010,10,23,13,49,17.10
2010,10,23,13,50,19.70
2010,10,23,13,51,17.80
2010,10,23,13,52,19.30
2010,10,23,13,53,14.80
2010,10,23,13,54,16.50
2010,10,23,13,55,17.40
2010,10,23,13,56,22.10
2010,10,23,13,57,17.00
2010,10,23,13,58,15.70
2010,10,23,13,59,19.80
2010,10,23,14,00,19.20
2010,10,23,14,01,18.30
2010,10,23,14,02,21.50
2010,10,23,14,03,13.70
2010,10,23,14,04,15.00
2010,10,23,14,05,15.90
2010,10,23,14,06,15.20
2010,10,23,14,07,15.90
2010,10,23,14,08,18.10
2010,10,23,14,09,18.80
2010,10,23,14,10,19.00
2010,10,23,14,11,16.50
2010,10,23,14,12,14.30
2010,10,23,14,13,18.20
2010,10,23,14,14,17.00
2010,10,23,14,15,17.90
2010,10,23,14,16,14.60
2010,10,23,14,17,15.30
2010,10,23,14,18,18.80
2010,10,23,14,19,17.30
2010,10,23,14,20,19.60
2010,10,23,14,21,17.80
2010,10,23,14,22,15.70
2010,10,23,14,23,18.90
2010,10,23,14,24,11.90
2010,10,23,14,25,14.30
2010,10,23,14,26,17.20
2010,10,23,14,27,19.60
2010,10,23,14,28,14.00
2010,10,23,14,29,13.70
2010,10,23,14,30,11.80
2010,10,23,14,31,12.60
2010,10,23,14,32,15.70
2010,10,23,14,33,11.90
2010,10,23,14,34,19.50
2010,10,23,14,35,13.40
2010,10,23,14,36,16.10
2010,10,23,14,37,11.40
2010,10,23,14,38,13.60
2010,10,23,14,39,12.70
2010,10,23,14,40,9.60
2010,10,23,14,41,12.60
2010,10,23,14,42,11.30
2010,10,23,14,43,9.20
2010,10,23,14,44,8.70
2010,10,23,14,45,13.80
2010,10,23,14,46,14.90
2010,10,23,14,47,12.60
2010,10,23,14,48,13.90
2010,10,23,14,49,11.90
2010,10,23,14,50,14.90
2010,10,23,14,51,12.00
2010,10,23,14,52,14.20
2010,10,23,14,53,16.70
2010,10,23,14,54,10.20
2010,10,23,14,55,12.20
2010,10,23,14,56,17.00
2010,10,23,14,57,16.50
2010,10,23,14,58,12.60
2010,10,23,14,59,15.90
2010,10,23,15,00,15.30
2010,10,23,15,01,10.20
2010,10,23,15,02,9.50
2010,10,23,15,03,12.60
2010,10,23,15,04,14.40
2010,10,23,15,05,12.20
2010,10,23,15,06,19.90
2010,10,23,15,07,17.30
2010,10,23,15,08,10.10
2010,10,23,15,09,13.90
2010,10,23,15,10,15.10
2010,10,23,15,11,12.20
2010,10,23,15,12,19.50
2010,10,23,15,13,16.90
2010,10,23,15,14,8.70
2010,10,23,15,15,13.80
2010,10,23,15,16,16.70
2010,10,23,15,17,15.80
2010,10,23,15,18,13.10
2010,10,23,15,19,11.80
2010,10,23,15,20,14.20
2010,10,23,15,21,16.50
2010,10,23,15,22,17.40
2010,10,23,15,23,16.60
2010,10,23,15,24,11.30
2010,10,23,15,25,14.90
2010,10,23,15,26,18.50
2010,10,23,15,27,13.70
2010,10,23,15,28,17.60
2010,10,23,15,29,11.60
2010,10,23,15,30,19.00
2010,10,23,15,31,10.50
2010,10,23,15,32,13.50
2010,10,23,15,33,19.80
2010,10,23,15,34,13.80
2010,10,23,15,35,9.70
2010,10,23,15,36,12.80
2010,10,23,15,37,16.40
2010,10,23,15,38,19.40
2010,10,23,15,39,17.50
2010,10,23,15,40,20.20
2010,10,23,15,41,9.50
2010,10,23,15,42,11.60
2010,10,23,15,43,17.10
2010,10,23,15,44,12.50
2010,10,23,15,45,15.00
2010,10,23,15,46,17.00
2010,10,23,15,47,9.70
2010,10,23,15,48,17.00
2010,10,23,15,49,11.00
2010,10,23,15,50,16.30
2010,10,23,15,51,12.80
2010,10,23,15,52,14.50
2010,10,23,15,53,13.80
2010,10,23,15,54,14.80
2010,10,23,15,55,12.90
2010,10,23,15,56,24.70
2010,10,23,15,57,18.00
2010,10,23,15,58,19.00
2010,10,23,15,59,23.50
2010,10,23,16,00,16.10
2010,10,23,16,01,18.20
2010,10,23,16,02,15.80
2010,10,23,16,03,24.00
2010,10,23,16,04,17.20
2010,10,23,16,05,18.00
2010,10,23,16,06,17.10
2010,10,23,16,07,19.70
2010,10,23,16,08,18.90
2010,10,23,16,09,20.40
2010,10,23,16,10,15.40
2010,10,23,16,11,21.30
2010,10,23,16,12,23.00
2010,10,23,16,13,15.40
2010,10,23,16,14,20.40
2010,10,23,16,15,19.20
2010,10,23,16,16,20.00
2010,10,23,16,17,17.20
2010,10,23,16,18,15.80
2010,10,23,16,19,26.30
2010,10,23,16,20,22.40
2010,10,23,16,21,19.60
2010,10,23,16,22,18.20
2010,10,23,16,23,21.90
2010,10,23,16,24,18.30
2010,10,23,16,25,20.80
2010,10,23,16,26,16.40
2010,10,23,16,27,15.90
2010,10,23,16,28,23.30
2010,10,23,16,29,20.10
2010,10,23,16,30,24.10
2010,10,23,16,31,25.30
2010,10,23,16,32,20.30
2010,10,23,16,33,23.30
2010,10,23,16,34,21.20
2010,10,23,16,35,12.90
2010,10,23,16,36,26.40
2010,10,23,16,37,17.30
2010,10,23,16,38,22.00
2010,10,23,16,39,17.50
2010,10,23,16,40,20.00
2010,10,23,16,41,25.20
2010,10,23,16,42,26.00
2010,10,23,16,43,15.90
2010,10,23,16,44,15.00
2010,10,23,16,45,27.40
2010,10,23,16,46,22.70
2010,10,23,16,47,15.90
2010,10,23,16,48,23.60
2010,10,23,16,49,18.80
2010,10,23,16,50,18.60
2010,10,23,16,51,23.70
2010,10,23,16,52,16.60
2010,10,23,16,53,24.70
2010,10,23,16,54,21.50
2010,10,23,16,55,18.10
2010,10,23,16,56,13.00
2010,10,23,16,57,14.50
2010,10,23,16,58,18.10
2010,10,23,16,59,13.90
2010,10,23,17,00,14.60
2010,10,23,17,01,25.10
2010,10,23,17,02,23.10
2010,10,23,17,03,23.00
2010,10,23,17,04,14.60
2010,10,23,17,05,16.60
2010,10,23,17,06,17.60
2010,10,23,17,07,20.60
2010,10,23,17,08,19.90
2010,10,23,17,09,17.00
2010,10,23,17,10,20.30
2010,10,23,17,11,18.80
2010,10,23,17,12,15.50
2010,10,23,17,13,19.30
2010,10,23,17,14,19.40
2010,10,23,17,15,18.90
2010,10,23,17,16,18.50
2010,10,23,17,17,20.10
2010,10,23,17,18,19.30
2010,10,23,17,19,19.00
2010,10,23,17,20,12.50
2010,10,23,17,21,15.40
2010,10,23,17,22,19.40
2010,10,23,17,23,15.40
2010,10,23,17,24,12.60
2010,10,23,17,25,14.80
2010,10,23,17,26,16.30
2010,10,23,17,27,21.20
2010,10,23,17,28,22.00
2010,10,23,17,29,21.70
2010,10,23,17,30,13.20
2010,10,23,17,31,17.70
2010,10,23,17,32,15.50
2010,10,23,17,33,16.20
2010,10,23,17,34,18.90
2010,10,23,17,35,21.60
2010,10,23,17,36,25.70
2010,10,23,17,37,21.20
2010,10,23,17,38,14.30
2010,10,23,17,39,18.30
2010,10,23,17,40,16.90
2010,10,23,17,41,17.60
2010,10,23,17,42,19.30
2010,10,23,17,43,17.20
2010,10,23,17,44,16.00
2010,10,23,17,45,19.80